Weather History for KMMH - June, 2013

Change the Weather History Date:

Wednesday, June 26, 2013

  Actual Average (KBIH) Record (KBIH)
Temperature  
Mean Temperature 60 °F 74 °F  
Max Temperature 84 °F 95 °F 104 °F (1957)
Min Temperature 35 °F 53 °F 42 °F (1975)
Degree Days  
Heating Degree Days 6 0  
Month to date heating degree days 17  
Since 1 June heating degree days 17  
Since 1 July heating degree days 4175  
Cooling Degree Days 0 9  
Month to date cooling degree days 172  
Year to date cooling degree days 240  
Since 1 June cooling degree days 172  
Growing Degree Days 10 (Base 50)    
Moisture  
Dew Point 40 °F    
Average Humidity 48    
Maximum Humidity 87    
Minimum Humidity 14    
Precipitation  
Precipitation 0.00 in 0.01 in 0.03 in (1951)
Month to date precipitation 0.17  
Year to date precipitation 3.05  
Snow  
Snow 0.00 in 0.00 in - ()
Month to date snowfall 0.0  
Since 1 June snowfall 0.0  
Since 1 July snowfall 8.0  
Snow Depth -    
Sea Level Pressure  
Sea Level Pressure 30.28 in    
Wind  
Wind Speed 4 mph (WNW)    
Max Wind Speed 24 mph    
Max Gust Speed 37 mph    
Visibility 10 miles    
Events      
T = Trace of Precipitation, MM = Missing Value Source: NWS Daily Summary

Daily Weather History Graph

Daily Weather History Graph

Search for Another Location

Airport or City:

Trip Planner

Search our weather history database for the weather conditions in past years. The results will help you decide how hot, cold, wet, or windy it might be!

Date:

Astronomy

Jun. 26, 2013 Rise Set
Actual Time 5:35 AM PDT 8:20 PM PDT
Civil Twilight 5:04 AM PDT 8:52 PM PDT
Nautical Twilight 4:25 AM PDT 9:31 PM PDT
Astronomical Twilight 3:41 AM PDT 10:15 PM PDT
Moon 10:52 PM PDT (6/26) 9:28 AM PDT (6/26)
Length of Visible Light 15h 47m
Length of Day
14h 45m
Waning Gibbous, 84% of the Moon is Illuminated
Jun 26
Waning Gibbous
Jun 29
Last Quarter
Jul 8
New
Jul 15
First Quarter
Jul 22
Full

Hourly Weather History & Observations

Time (PDT) Temp. Windchill Dew Point Humidity Pressure Visibility Wind Dir Wind Speed Gust Speed Precip Events Conditions
12:15 AM 48.2 °F - 39.2 °F 71% 30.24 in 10.0 mi Calm Calm - N/A   Clear
12:35 AM 48.2 °F - 41.0 °F 76% 30.23 in 10.0 mi Calm Calm - N/A   Clear
12:55 AM 46.4 °F 45.2 °F 39.2 °F 76% 30.23 in 10.0 mi SW 3.5 mph - N/A   Clear
1:15 AM 44.6 °F - 39.2 °F 81% 30.23 in 10.0 mi Calm Calm - N/A   Clear
1:35 AM 42.8 °F - 37.4 °F 81% 30.23 in 10.0 mi Calm Calm - N/A   Clear
1:55 AM 41.0 °F - 37.4 °F 87% 30.23 in 10.0 mi Calm Calm - N/A   Clear
2:15 AM 41.0 °F - 35.6 °F 81% 30.23 in 10.0 mi Calm Calm - N/A   Clear
2:35 AM 42.8 °F - 37.4 °F 81% 30.23 in 10.0 mi Calm Calm - N/A   Clear
2:55 AM 37.4 °F - 33.8 °F 87% 30.23 in 10.0 mi Calm Calm - N/A   Clear
3:15 AM 37.4 °F - 33.8 °F 87% 30.23 in 10.0 mi Calm Calm - N/A   Clear
3:35 AM 39.2 °F - 35.6 °F 87% 30.23 in 10.0 mi Calm Calm - N/A   Clear
3:55 AM 39.2 °F - 35.6 °F 87% 30.23 in 10.0 mi Calm Calm - N/A   Clear
4:15 AM 41.0 °F - 35.6 °F 81% 30.24 in 10.0 mi Calm Calm - N/A   Clear
4:35 AM 39.2 °F - 35.6 °F 87% 30.24 in 10.0 mi Calm Calm - N/A   Clear
4:55 AM 37.4 °F - 33.8 °F 87% 30.24 in 10.0 mi Calm Calm - N/A   Clear
5:15 AM 35.6 °F 30.7 °F 32.0 °F 87% 30.25 in 10.0 mi NNW 5.8 mph - N/A   Clear
5:35 AM 35.6 °F - 32.0 °F 87% 30.26 in 10.0 mi North - - N/A   Clear
5:55 AM 37.4 °F - 33.8 °F 87% 30.26 in 10.0 mi Calm Calm - N/A   Clear
6:15 AM 39.2 °F - 35.6 °F 87% 30.27 in 10.0 mi Calm Calm - N/A   Clear
6:35 AM 41.0 °F - 35.6 °F 81% 30.27 in 10.0 mi Calm Calm - N/A   Clear
6:55 AM 44.6 °F 43.1 °F 35.6 °F 71% 30.27 in 10.0 mi NW 3.5 mph - N/A   Clear
7:15 AM 50.0 °F - 39.2 °F 66% 30.27 in 10.0 mi Calm Calm - N/A   Clear
7:55 AM 59.0 °F - 42.8 °F 55% 30.28 in 10.0 mi SSE 3.5 mph - N/A   Clear
8:15 AM 62.6 °F - 42.8 °F 48% 30.29 in 10.0 mi SSE 4.6 mph - N/A   Clear
8:35 AM 64.4 °F - 42.8 °F 45% 30.29 in 10.0 mi ESE 3.5 mph - N/A   Clear
8:55 AM 66.2 °F - 42.8 °F 43% 30.30 in 10.0 mi SSE 3.5 mph - N/A   Clear
9:15 AM 68.0 °F - 39.2 °F 35% 30.30 in 10.0 mi ENE 3.5 mph - N/A   Clear
9:35 AM 69.8 °F - 37.4 °F 31% 30.30 in 10.0 mi Calm Calm - N/A   Clear
9:55 AM 71.6 °F - 37.4 °F 29% 30.29 in 10.0 mi North 4.6 mph - N/A   Clear
10:15 AM 75.2 °F - 37.4 °F 25% 30.29 in 10.0 mi East 6.9 mph - N/A   Clear
10:35 AM 75.2 °F - 37.4 °F 25% 30.29 in 10.0 mi ESE 5.8 mph - N/A   Clear
10:55 AM 77.0 °F - 35.6 °F 22% 30.29 in 10.0 mi ESE 4.6 mph - N/A   Clear
11:15 AM 77.0 °F - 35.6 °F 22% 30.29 in 10.0 mi East 5.8 mph - N/A   Clear
11:35 AM 78.8 °F - 33.8 °F 20% 30.29 in 10.0 mi SSE 3.5 mph - N/A   Clear
11:55 AM 78.8 °F - 32.0 °F 18% 30.29 in 10.0 mi ESE 4.6 mph - N/A   Clear
12:15 PM 80.6 °F - 30.2 °F 16% 30.28 in 10.0 mi SSE 10.4 mph - N/A   Clear
12:35 PM 80.6 °F - 30.2 °F 16% 30.28 in 10.0 mi SSE 8.1 mph - N/A   Clear
12:55 PM 84.2 °F - 30.2 °F 14% 30.28 in 10.0 mi NNE 6.9 mph - N/A   Clear
1:15 PM 84.2 °F - 37.4 °F 19% 30.28 in 10.0 mi NW 10.4 mph 16.1 mph N/A   Clear
1:35 PM 82.4 °F - 37.4 °F 20% 30.28 in 10.0 mi WNW 18.4 mph 25.3 mph N/A   Clear
1:55 PM 84.2 °F - 39.2 °F 20% 30.27 in 10.0 mi WNW 18.4 mph 28.8 mph N/A   Clear
2:15 PM 82.4 °F - 41.0 °F 23% 30.27 in 10.0 mi NW 17.3 mph 25.3 mph N/A   Clear
2:35 PM 82.4 °F - 42.8 °F 25% 30.27 in 10.0 mi WNW 20.7 mph 27.6 mph N/A   Clear
2:55 PM 82.4 °F - 42.8 °F 25% 30.27 in 10.0 mi WNW 24.2 mph 33.4 mph N/A   Clear
3:15 PM 84.2 °F - 41.0 °F 22% 30.26 in 10.0 mi West 11.5 mph 36.8 mph N/A   Clear
3:35 PM 84.2 °F - 42.8 °F 23% 30.26 in 10.0 mi West 21.9 mph 31.1 mph N/A   Clear
3:55 PM 82.4 °F - 41.0 °F 23% 30.26 in 10.0 mi SW 11.5 mph 27.6 mph N/A   Clear
4:15 PM 84.2 °F - 41.0 °F 22% 30.26 in 10.0 mi WSW 15.0 mph 23.0 mph N/A   Clear
4:35 PM 84.2 °F - 39.2 °F 20% 30.26 in 10.0 mi West 4.6 mph 17.3 mph N/A   Clear
4:55 PM 82.4 °F - 42.8 °F 25% 30.26 in 10.0 mi WSW 8.1 mph 28.8 mph N/A   Clear
5:15 PM 82.4 °F - 42.8 °F 25% 30.27 in 10.0 mi West 10.4 mph 20.7 mph N/A   Clear
5:35 PM 82.4 °F - 42.8 °F 25% 30.26 in 10.0 mi SW 12.7 mph 24.2 mph N/A   Clear
5:55 PM 82.4 °F - 42.8 °F 25% 30.26 in 10.0 mi WSW 8.1 mph - N/A   Clear
6:15 PM 78.8 °F - 44.6 °F 30% 30.27 in 10.0 mi WNW 16.1 mph 35.7 mph N/A   Clear
6:35 PM 77.0 °F - 44.6 °F 32% 30.28 in 10.0 mi NW 15.0 mph 32.2 mph N/A   Scattered Clouds
6:55 PM 77.0 °F - 44.6 °F 32% 30.28 in 10.0 mi NNW 15.0 mph 20.7 mph N/A   Scattered Clouds
7:15 PM 75.2 °F - 44.6 °F 34% 30.28 in 10.0 mi NNW 8.1 mph 20.7 mph N/A   Scattered Clouds
7:35 PM 75.2 °F - 44.6 °F 34% 30.29 in 10.0 mi WNW 9.2 mph 20.7 mph N/A   Scattered Clouds
7:55 PM 73.4 °F - 44.6 °F 36% 30.29 in 10.0 mi NW 4.6 mph - N/A   Clear
8:15 PM 71.6 °F - 44.6 °F 38% 30.30 in 10.0 mi NNW 4.6 mph - N/A   Clear
8:35 PM 68.0 °F - 46.4 °F 46% 30.30 in 10.0 mi Calm Calm - N/A   Clear
8:55 PM 66.2 °F - 46.4 °F 49% 30.31 in 10.0 mi NW 8.1 mph - N/A   Clear
9:15 PM 66.2 °F - 44.6 °F 46% 30.32 in 10.0 mi North 4.6 mph - N/A   Clear
9:35 PM 66.2 °F - 46.4 °F 49% 30.32 in 10.0 mi Calm Calm - N/A   Clear
9:55 PM 66.2 °F - 46.4 °F 49% 30.33 in 10.0 mi Calm Calm - N/A   Clear
10:15 PM 64.4 °F - 46.4 °F 52% 30.34 in 10.0 mi Calm Calm - N/A   Clear
10:35 PM 62.6 °F - 46.4 °F 55% 30.35 in 10.0 mi SE 3.5 mph - N/A   Clear
11:15 PM 62.6 °F - 46.4 °F 55% 30.36 in 10.0 mi Calm Calm - N/A   Clear
11:35 PM 60.8 °F - 46.4 °F 59% 30.36 in 10.0 mi Calm Calm - N/A   Clear
11:55 PM 60.8 °F - 46.4 °F 59% 30.36 in 10.0 mi Calm Calm - N/A   Clear